| time (UTC) | temp C | wind direction | speed KPH | gust KPH | rain 1hr cm | rain 24hr cm | rain mn cm | humidity % | barometer mb |
| 20260505171554 | 22 | 315 | 6.4 | 12.9 | 0.00 | 0.00 | 0.00 | 82 | 1011.5 |
| 20260505171044 | 23 | 315 | 1.6 | 9.7 | 0.00 | 0.00 | 0.00 | 82 | 1011.5 |
| 20260505170533 | 23 | 293 | 3.2 | 9.7 | 0.00 | 0.00 | 0.00 | 82 | 1011.5 |
| 20260505170031 | 23 | 23 | 3.2 | 9.7 | 0.00 | 0.00 | 0.00 | 82 | 1011.5 |
| 20260505165514 | 23 | 338 | 3.2 | 11.3 | 0.00 | 0.00 | 0.00 | 82 | 1011.6 |
| 20260505165003 | 22 | 315 | 4.8 | 11.3 | 0.00 | 0.00 | 0.00 | 83 | 1011.7 |
| 20260505164453 | 22 | 315 | 1.6 | 9.7 | 0.00 | 0.00 | 0.00 | 84 | 1011.7 |
| 20260505163944 | 22 | 338 | 3.2 | 12.9 | 0.00 | 0.00 | 0.00 | 84 | 1011.7 |
| 20260505163433 | 22 | 338 | 6.4 | 12.9 | 0.00 | 0.00 | 0.00 | 84 | 1011.9 |
| 20260505162923 | 22 | 315 | 3.2 | 12.9 | 0.00 | 0.00 | 0.00 | 84 | 1011.9 |
| 20260505162412 | 22 | 293 | 4.8 | 12.9 | 0.00 | 0.00 | 0.00 | 83 | 1011.9 |
| 20260505161902 | 22 | 0 | 1.6 | 12.9 | 0.00 | 0.00 | 0.00 | 84 | 1011.9 |
| 20260505161405 | 22 | 315 | 0.0 | 9.7 | 0.00 | 0.00 | 0.00 | 83 | 1012.2 |
| 20260505160842 | 22 | 0 | 3.2 | 9.7 | 0.00 | 0.00 | 0.00 | 83 | 1012.3 |
| 20260505160331 | 22 | 315 | 4.8 | 9.7 | 0.00 | 0.00 | 0.00 | 83 | 1012.4 |
| 20260505153231 | 21 | 0 | 6.4 | 11.3 | 0.00 | 0.00 | 0.00 | 86 | 1012.4 |
| 20260505152722 | 21 | 338 | 4.8 | 11.3 | 0.00 | 0.00 | 0.00 | 87 | 1012.7 |
| 20260505152211 | 21 | 338 | 6.4 | 11.3 | 0.00 | 0.00 | 0.00 | 87 | 1012.7 |
| 20260505151700 | 21 | 338 | 6.4 | 11.3 | 0.00 | 0.00 | 0.00 | 87 | 1012.7 |
| 20260505151151 | 21 | 338 | 6.4 | 11.3 | 0.00 | 0.00 | 0.00 | 87 | 1012.7 |
| 20260505150653 | 21 | 0 | 6.4 | 14.5 | 0.00 | 0.00 | 0.00 | 87 | 1012.5 |
| 20260505150130 | 21 | 0 | 6.4 | 17.7 | 0.00 | 0.00 | 0.00 | 87 | 1012.3 |
| 20260505140438 | 20 | 0 | 8.0 | 14.5 | 0.00 | 0.00 | 0.00 | 89 | 1011.8 |
| 20260505130237 | 18 | 338 | 3.2 | 17.7 | 0.00 | 0.00 | 0.00 | 93 | 1011.7 |
| 20260505124706 | 17 | 0 | 9.7 | 17.7 | 0.00 | 0.00 | 0.00 | 94 | 1011.8 |
| 20260505124156 | 17 | 0 | 8.0 | 17.7 | 0.00 | 0.00 | 0.00 | 94 | 1011.8 |
| 20260505123646 | 17 | 338 | 12.9 | 17.7 | 0.00 | 0.00 | 0.00 | 94 | 1011.9 |
| 20260505123136 | 17 | 0 | 4.8 | 14.5 | 0.00 | 0.00 | 0.00 | 94 | 1011.5 |
| 20260505122626 | 16 | 0 | 11.3 | 12.9 | 0.00 | 0.00 | 0.00 | 94 | 1012.0 |
| 20260505122117 | 16 | 23 | 3.2 | 6.4 | 0.00 | 0.00 | 0.00 | 95 | 1011.9 |
| 20260505121605 | 16 | 23 | 4.8 | 9.7 | 0.00 | 0.00 | 0.00 | 95 | 1011.8 |
| 20260505121055 | 16 | 23 | 4.8 | 9.7 | 0.00 | 0.00 | 0.00 | 95 | 1011.8 |
| 20260505120545 | 16 | 0 | 4.8 | 6.4 | 0.00 | 0.00 | 0.00 | 95 | 1011.8 |
| 20260505120050 | 15 | 23 | 3.2 | 6.4 | 0.00 | 0.00 | 0.00 | 95 | 1012.0 |
| 20260505115525 | 15 | 45 | 3.2 | 3.2 | 0.00 | 0.00 | 0.00 | 95 | 1011.6 |
| 20260505115015 | 15 | 45 | 3.2 | 3.2 | 0.00 | 0.00 | 0.00 | 95 | 1011.7 |
| 20260505114518 | 14 | 68 | 0.0 | 3.2 | 0.00 | 0.00 | 0.00 | 95 | 1011.7 |
| 20260505113955 | 14 | 90 | 0.0 | 3.2 | 0.00 | 0.00 | 0.00 | 95 | 1011.7 |
| 20260505113445 | 13 | 90 | 0.0 | 3.2 | 0.00 | 0.00 | 0.00 | 95 | 1011.4 |
| 20260505112934 | 13 | 68 | 0.0 | 3.2 | 0.00 | 0.00 | 0.00 | 95 | 1011.7 |
| 20260505112424 | 13 | 68 | 0.0 | 3.2 | 0.00 | 0.00 | 0.00 | 95 | 1011.6 |
| 20260505111914 | 13 | 68 | 0.0 | 3.2 | 0.00 | 0.00 | 0.00 | 95 | 1011.6 |
| 20260505111404 | 13 | 68 | 0.0 | 3.2 | 0.00 | 0.00 | 0.00 | 95 | 1011.6 |
| 20260505110853 | 13 | 45 | 0.0 | 3.2 | 0.00 | 0.00 | 0.00 | 95 | 1011.4 |
| 20260505110356 | 13 | 45 | 0.0 | 3.2 | 0.00 | 0.00 | 0.00 | 95 | 1011.5 |
| 20260505102222 | 11 | 23 | 0.0 | 3.2 | 0.00 | 0.00 | 0.00 | 95 | 1011.5 |
| 20260505101712 | 11 | 0 | 0.0 | 3.2 | 0.00 | 0.00 | 0.00 | 95 | 1011.3 |
| 20260505101202 | 11 | 0 | 0.0 | 3.2 | 0.00 | 0.00 | 0.00 | 95 | 1011.3 |
| 20260505100705 | 12 | 23 | 0.0 | 3.2 | 0.00 | 0.00 | 0.00 | 95 | 1011.1 |
| 20260505100157 | 12 | 45 | 0.0 | 0.0 | 0.00 | 0.00 | 0.00 | 94 | 1011.1 |
| 20260505095631 | 12 | 45 | 0.0 | 0.0 | 0.00 | 0.00 | 0.00 | 94 | 1011.2 |
| 20260505095117 | 11 | 45 | 0.0 | 0.0 | 0.00 | 0.00 | 0.00 | 94 | 1011.1 |
| 20260505094611 | 12 | 23 | 0.0 | 3.2 | 0.00 | 0.00 | 0.00 | 94 | 1011.1 |
| 20260505094101 | 12 | 23 | 0.0 | 3.2 | 0.00 | 0.00 | 0.00 | 94 | 1011.0 |
| 20260505093551 | 12 | 23 | 0.0 | 3.2 | 0.00 | 0.00 | 0.00 | 94 | 1011.2 |
| 20260505093041 | 12 | 23 | 0.0 | 3.2 | 0.00 | 0.00 | 0.00 | 94 | 1011.1 |
| 20260505092531 | 12 | 45 | 1.6 | 3.2 | 0.00 | 0.00 | 0.00 | 94 | 1011.1 |
| 20260505092028 | 12 | 68 | 0.0 | 0.0 | 0.00 | 0.00 | 0.00 | 94 | 1010.9 |
| 20260505091515 | 12 | 68 | 0.0 | 0.0 | 0.00 | 0.00 | 0.00 | 93 | 1010.8 |
| 20260505091001 | 12 | 68 | 0.0 | 0.0 | 0.00 | 0.00 | 0.00 | 93 | 1010.9 |
| 20260505090450 | 12 | 68 | 0.0 | 0.0 | 0.00 | 0.00 | 0.00 | 93 | 1011.1 |
| 20260505085940 | 12 | 68 | 0.0 | 0.0 | 0.00 | 0.00 | 0.00 | 93 | 1011.0 |
| 20260505085429 | 12 | 68 | 0.0 | 3.2 | 0.00 | 0.00 | 0.00 | 93 | 1011.0 |
| 20260505084922 | 13 | 68 | 0.0 | 3.2 | 0.00 | 0.00 | 0.00 | 93 | 1010.8 |
| 20260505084409 | 13 | 68 | 0.0 | 3.2 | 0.00 | 0.00 | 0.00 | 93 | 1010.7 |
| 20260505083900 | 13 | 68 | 0.0 | 3.2 | 0.00 | 0.00 | 0.00 | 93 | 1010.7 |
| 20260505083349 | 12 | 45 | 0.0 | 3.2 | 0.00 | 0.00 | 0.00 | 93 | 1010.6 |
| 20260505082839 | 12 | 45 | 0.0 | 3.2 | 0.00 | 0.00 | 0.00 | 93 | 1010.4 |
| 20260505082328 | 12 | 45 | 0.0 | 3.2 | 0.00 | 0.00 | 0.00 | 93 | 1010.3 |
| 20260505081819 | 12 | 45 | 1.6 | 3.2 | 0.00 | 0.00 | 0.00 | 92 | 1010.2 |
| 20260505081309 | 12 | 23 | 1.6 | 3.2 | 0.00 | 0.00 | 0.00 | 92 | 1010.4 |
| 20260505080759 | 12 | 23 | 1.6 | 6.4 | 0.00 | 0.00 | 0.00 | 92 | 1010.2 |
| 20260505080248 | 12 | 23 | 3.2 | 6.4 | 0.00 | 0.00 | 0.00 | 92 | 1010.0 |
| 20260505075738 | 12 | 23 | 3.2 | 3.2 | 0.00 | 0.00 | 0.00 | 92 | 1010.3 |
| 20260505075228 | 12 | 23 | 3.2 | 3.2 | 0.00 | 0.00 | 0.00 | 92 | 1010.3 |
| 20260505074731 | 12 | 23 | 3.2 | 3.2 | 0.00 | 0.00 | 0.00 | 92 | 1010.1 |
| 20260505074208 | 12 | 23 | 3.2 | 3.2 | 0.00 | 0.00 | 0.00 | 91 | 1010.4 |
| 20260505073657 | 12 | 23 | 3.2 | 3.2 | 0.00 | 0.00 | 0.00 | 91 | 1010.2 |
| 20260505073148 | 12 | 0 | 3.2 | 3.2 | 0.00 | 0.00 | 0.00 | 91 | 1010.0 |
| 20260505072638 | 12 | 0 | 3.2 | 3.2 | 0.00 | 0.00 | 0.00 | 90 | 1010.4 |
| 20260505072127 | 12 | 23 | 1.6 | 3.2 | 0.00 | 0.00 | 0.00 | 90 | 1010.1 |
| 20260505071620 | 12 | 0 | 3.2 | 6.4 | 0.00 | 0.00 | 0.00 | 90 | 1010.0 |
| 20260505071107 | 12 | 23 | 3.2 | 6.4 | 0.00 | 0.00 | 0.00 | 89 | 1010.3 |
| 20260505070557 | 13 | 0 | 3.2 | 6.4 | 0.00 | 0.00 | 0.00 | 89 | 1010.2 |
| 20260505065537 | 13 | 23 | 3.2 | 6.4 | 0.00 | 0.00 | 0.00 | 89 | 1010.4 |
| 20260505065250 | 13 | 23 | 4.8 | 6.4 | 0.00 | 0.00 | 0.00 | 88 | 1010.2 |
| 20260505064538 | 13 | 23 | 3.2 | 6.4 | 0.00 | 0.00 | 0.00 | 88 | 1010.3 |
| 20260505064005 | 13 | 45 | 4.8 | 6.4 | 0.00 | 0.00 | 0.00 | 87 | 1010.3 |
| 20260505063456 | 13 | 23 | 4.8 | 6.4 | 0.00 | 0.00 | 0.00 | 86 | 1010.3 |
| 20260505062945 | 14 | 23 | 3.2 | 6.4 | 0.00 | 0.00 | 0.00 | 86 | 1010.5 |
| 20260505062436 | 14 | 23 | 3.2 | 6.4 | 0.00 | 0.00 | 0.00 | 86 | 1010.7 |
| 20260505061927 | 14 | 23 | 3.2 | 6.4 | 0.00 | 0.00 | 0.00 | 87 | 1010.5 |
| 20260505060905 | 13 | 23 | 3.2 | 6.4 | 0.00 | 0.00 | 0.00 | 87 | 1010.5 |
| 20260505060355 | 13 | 23 | 3.2 | 6.4 | 0.00 | 0.00 | 0.00 | 88 | 1010.7 |
| 20260505055846 | 13 | 45 | 3.2 | 6.4 | 0.00 | 0.00 | 0.00 | 88 | 1010.6 |
| 20260505055334 | 13 | 45 | 3.2 | 3.2 | 0.00 | 0.00 | 0.00 | 88 | 1010.5 |
| 20260505054824 | 13 | 23 | 3.2 | 3.2 | 0.00 | 0.00 | 0.00 | 88 | 1010.7 |
| 20260505054315 | 13 | 23 | 3.2 | 3.2 | 0.00 | 0.00 | 0.00 | 87 | 1010.9 |
| 20260505053804 | 13 | 23 | 3.2 | 3.2 | 0.00 | 0.00 | 0.00 | 87 | 1010.8 |
| 20260505053254 | 13 | 23 | 1.6 | 6.4 | 0.00 | 0.00 | 0.00 | 86 | 1010.6 |
| 20260505052744 | 13 | 0 | 1.6 | 6.4 | 0.00 | 0.00 | 0.00 | 85 | 1010.9 |
| 20260505052234 | 13 | 23 | 1.6 | 6.4 | 0.00 | 0.00 | 0.00 | 85 | 1010.9 |
| 20260505051724 | 13 | 45 | 0.0 | 3.2 | 0.00 | 0.00 | 0.00 | 86 | 1011.0 |
| 20260505051214 | 13 | 45 | 0.0 | 6.4 | 0.00 | 0.00 | 0.00 | 86 | 1010.7 |
| 20260505050716 | 13 | 45 | 1.6 | 6.4 | 0.00 | 0.00 | 0.00 | 85 | 1010.6 |
| 20260505050154 | 13 | 45 | 3.2 | 6.4 | 0.00 | 0.00 | 0.00 | 85 | 1010.4 |
| 20260505041532 | 13 | 45 | 6.4 | 6.4 | 0.00 | 0.00 | 0.00 | 83 | 1010.7 |
| 20260505041013 | 13 | 23 | 3.2 | 9.7 | 0.00 | 0.00 | 0.00 | 83 | 1010.8 |
| 20260505040503 | 13 | 45 | 4.8 | 9.7 | 0.00 | 0.00 | 0.00 | 82 | 1010.8 |
| 20260505035951 | 13 | 45 | 6.4 | 9.7 | 0.00 | 0.00 | 0.00 | 82 | 1010.6 |
| 20260505035442 | 13 | 45 | 4.8 | 6.4 | 0.00 | 0.00 | 0.00 | 83 | 1010.8 |
| 20260505034932 | 13 | 23 | 6.4 | 9.7 | 0.00 | 0.00 | 0.00 | 82 | 1010.6 |
| 20260505034427 | 13 | 45 | 4.8 | 9.7 | 0.00 | 0.00 | 0.00 | 83 | 1010.8 |
| 20260505033912 | 13 | 45 | 4.8 | 6.4 | 0.00 | 0.00 | 0.00 | 84 | 1010.7 |
| 20260505033401 | 12 | 45 | 3.2 | 6.4 | 0.00 | 0.00 | 0.00 | 87 | 1010.8 |
| 20260505032851 | 12 | 23 | 3.2 | 6.4 | 0.00 | 0.00 | 0.00 | 86 | 1010.6 |
| 20260505032342 | 12 | 23 | 3.2 | 6.4 | 0.00 | 0.00 | 0.00 | 86 | 1010.9 |
| 20260505031831 | 12 | 0 | 3.2 | 3.2 | 0.00 | 0.00 | 0.00 | 86 | 1010.9 |
| 20260505031321 | 12 | 0 | 1.6 | 3.2 | 0.00 | 0.00 | 0.00 | 85 | 1010.9 |
| 20260505030810 | 12 | 23 | 3.2 | 3.2 | 0.00 | 0.00 | 0.00 | 85 | 1010.9 |
| 20260505030300 | 12 | 0 | 3.2 | 3.2 | 0.00 | 0.00 | 0.00 | 84 | 1010.8 |
| 20260505025751 | 12 | 0 | 1.6 | 6.4 | 0.00 | 0.00 | 0.00 | 83 | 1010.8 |
| 20260505025240 | 12 | 0 | 1.6 | 6.4 | 0.00 | 0.00 | 0.00 | 83 | 1010.8 |
| 20260505024730 | 13 | 45 | 3.2 | 6.4 | 0.00 | 0.00 | 0.00 | 82 | 1010.7 |
| 20260505024226 | 13 | 45 | 3.2 | 6.4 | 0.00 | 0.00 | 0.00 | 81 | 1010.5 |
| 20260505023712 | 13 | 45 | 4.8 | 6.4 | 0.00 | 0.00 | 0.00 | 81 | 1010.6 |
| 20260505023200 | 12 | 23 | 3.2 | 6.4 | 0.00 | 0.00 | 0.00 | 82 | 1010.5 |
| 20260505022650 | 12 | 23 | 4.8 | 6.4 | 0.00 | 0.00 | 0.00 | 83 | 1010.5 |
| 20260505022139 | 12 | 45 | 1.6 | 3.2 | 0.00 | 0.00 | 0.00 | 83 | 1010.4 |
| 20260505021638 | 12 | 45 | 1.6 | 3.2 | 0.00 | 0.00 | 0.00 | 83 | 1010.7 |
| 20260505021119 | 12 | 45 | 3.2 | 3.2 | 0.00 | 0.00 | 0.00 | 83 | 1010.8 |
| 20260505020612 | 12 | 68 | 3.2 | 9.7 | 0.00 | 0.00 | 0.00 | 83 | 1010.6 |
| 20260505020109 | 13 | 90 | 3.2 | 9.7 | 0.00 | 0.00 | 0.00 | 81 | 1010.5 |
| 20260505015553 | 13 | 45 | 6.4 | 6.4 | 0.00 | 0.00 | 0.00 | 79 | 1010.6 |
| 20260505015040 | 13 | 45 | 4.8 | 6.4 | 0.00 | 0.00 | 0.00 | 79 | 1010.5 |
| 20260505014530 | 13 | 23 | 3.2 | 9.7 | 0.00 | 0.00 | 0.00 | 80 | 1010.3 |
| 20260505014026 | 13 | 45 | 3.2 | 9.7 | 0.00 | 0.00 | 0.00 | 80 | 1010.4 |
| 20260505013508 | 13 | 23 | 6.4 | 9.7 | 0.00 | 0.00 | 0.00 | 81 | 1010.3 |
| 20260505013000 | 12 | 23 | 4.8 | 6.4 | 0.00 | 0.00 | 0.00 | 82 | 1010.2 |
| 20260505012509 | 12 | 0 | 3.2 | 3.2 | 0.00 | 0.00 | 0.00 | 82 | 1010.0 |
| 20260505011945 | 12 | 23 | 0.0 | 3.2 | 0.00 | 0.00 | 0.00 | 82 | 1010.2 |
| 20260505011428 | 12 | 45 | 1.6 | 3.2 | 0.00 | 0.00 | 0.00 | 82 | 1010.4 |
| 20260505010921 | 12 | 45 | 1.6 | 3.2 | 0.00 | 0.00 | 0.00 | 82 | 1010.3 |
| 20260505010408 | 12 | 45 | 1.6 | 3.2 | 0.00 | 0.00 | 0.00 | 82 | 1010.2 |
| 20260505005859 | 12 | 68 | 0.0 | 3.2 | 0.00 | 0.00 | 0.00 | 82 | 1010.2 |
| 20260505005347 | 12 | 45 | 0.0 | 3.2 | 0.00 | 0.00 | 0.00 | 82 | 1010.1 |
| 20260505004845 | 12 | 23 | 0.0 | 3.2 | 0.00 | 0.00 | 0.00 | 81 | 1010.1 |
| 20260505004328 | 12 | 23 | 0.0 | 3.2 | 0.00 | 0.00 | 0.00 | 80 | 1010.2 |
| 20260505003821 | 12 | 23 | 1.6 | 6.4 | 0.00 | 0.00 | 0.00 | 79 | 1009.9 |
| 20260505003306 | 13 | 23 | 1.6 | 6.4 | 0.00 | 0.00 | 0.00 | 80 | 1009.9 |
| 20260505002800 | 13 | 45 | 3.2 | 6.4 | 0.00 | 0.00 | 0.00 | 80 | 1010.0 |
| 20260505002246 | 13 | 45 | 3.2 | 6.4 | 0.00 | 0.00 | 0.00 | 81 | 1010.0 |
| 20260505001740 | 13 | 45 | 3.2 | 3.2 | 0.00 | 0.00 | 0.00 | 81 | 1009.8 |
| 20260505001226 | 13 | 23 | 3.2 | 3.2 | 0.00 | 0.00 | 0.00 | 81 | 1009.7 |
| 20260505000720 | 12 | 23 | 0.0 | 3.2 | 0.00 | 0.00 | 0.00 | 79 | 1009.6 |
| 20260505000205 | 12 | 23 | 0.0 | 6.4 | 0.00 | 0.00 | 0.00 | 78 | 1009.5 |
| 20260504235700 | 13 | 23 | 1.6 | 6.4 | 0.00 | 0.00 | 0.00 | 79 | 1009.3 |
| 20260504235145 | 13 | 23 | 3.2 | 3.2 | 0.00 | 0.00 | 0.00 | 79 | 1009.3 |
| 20260504234642 | 13 | 23 | 0.0 | 3.2 | 0.00 | 0.00 | 0.00 | 80 | 1009.4 |
| 20260504234125 | 13 | 23 | 1.6 | 3.2 | 0.00 | 0.00 | 0.00 | 80 | 1009.3 |
| 20260504233614 | 13 | 23 | 0.0 | 3.2 | 0.00 | 0.00 | 0.00 | 79 | 1009.3 |
| 20260504233104 | 13 | 23 | 1.6 | 3.2 | 0.00 | 0.00 | 0.00 | 78 | 1009.2 |
| 20260504232555 | 13 | 23 | 1.6 | 3.2 | 0.00 | 0.00 | 0.00 | 78 | 1009.2 |
| 20260504232044 | 13 | 23 | 1.6 | 6.4 | 0.00 | 0.00 | 0.00 | 78 | 1009.2 |
| 20260504231534 | 13 | 23 | 0.0 | 6.4 | 0.00 | 0.00 | 0.00 | 78 | 1009.2 |
| 20260504231028 | 14 | 45 | 3.2 | 6.4 | 0.00 | 0.00 | 0.00 | 77 | 1009.1 |
| 20260504230513 | 14 | 45 | 1.6 | 3.2 | 0.00 | 0.00 | 0.00 | 76 | 1009.2 |
| 20260504230004 | 14 | 45 | 1.6 | 3.2 | 0.00 | 0.00 | 0.00 | 76 | 1009.0 |
| 20260504225455 | 14 | 68 | 0.0 | 3.2 | 0.00 | 0.00 | 0.00 | 77 | 1008.8 |
| 20260504224944 | 14 | 45 | 0.0 | 3.2 | 0.00 | 0.00 | 0.00 | 77 | 1008.8 |
| 20260504224434 | 14 | 45 | 1.6 | 3.2 | 0.00 | 0.00 | 0.00 | 77 | 1008.8 |
| 20260504223923 | 14 | 23 | 0.0 | 3.2 | 0.00 | 0.00 | 0.00 | 77 | 1008.6 |
| 20260504223413 | 14 | 23 | 0.0 | 3.2 | 0.00 | 0.00 | 0.00 | 77 | 1008.7 |
| 20260504222904 | 15 | 45 | 1.6 | 3.2 | 0.00 | 0.00 | 0.00 | 75 | 1008.9 |
| 20260504222352 | 15 | 45 | 0.0 | 3.2 | 0.00 | 0.00 | 0.00 | 74 | 1008.6 |
| 20260504221842 | 15 | 45 | 0.0 | 3.2 | 0.00 | 0.00 | 0.00 | 74 | 1008.7 |
| 20260504221333 | 15 | 90 | 0.0 | 0.0 | 0.00 | 0.00 | 0.00 | 74 | 1008.7 |
| 20260504220822 | 15 | 45 | 0.0 | 3.2 | 0.00 | 0.00 | 0.00 | 72 | 1008.5 |
| 20260504220311 | 15 | 68 | 0.0 | 3.2 | 0.00 | 0.00 | 0.00 | 71 | 1008.3 |
| 20260504215802 | 16 | 45 | 0.0 | 3.2 | 0.00 | 0.00 | 0.00 | 69 | 1008.3 |
| 20260504215252 | 16 | 45 | 0.0 | 3.2 | 0.00 | 0.00 | 0.00 | 69 | 1008.3 |
| 20260504214741 | 16 | 23 | 0.0 | 0.0 | 0.00 | 0.00 | 0.00 | 70 | 1008.4 |
| 20260504214233 | 16 | 45 | 0.0 | 0.0 | 0.00 | 0.00 | 0.00 | 70 | 1008.4 |
| 20260504213722 | 16 | 45 | 0.0 | 0.0 | 0.00 | 0.00 | 0.00 | 69 | 1008.2 |
| 20260504213210 | 17 | 45 | 0.0 | 0.0 | 0.00 | 0.00 | 0.00 | 68 | 1008.2 |
| 20260504212701 | 17 | 23 | 0.0 | 3.2 | 0.00 | 0.00 | 0.00 | 66 | 1008.1 |
| 20260504212150 | 17 | 45 | 0.0 | 3.2 | 0.00 | 0.00 | 0.00 | 66 | 1008.1 |
| 20260504211641 | 17 | 45 | 1.6 | 3.2 | 0.00 | 0.00 | 0.00 | 65 | 1007.9 |
| 20260504211143 | 18 | 45 | 1.6 | 3.2 | 0.00 | 0.00 | 0.00 | 63 | 1007.9 |
| 20260504210623 | 18 | 45 | 3.2 | 6.4 | 0.00 | 0.00 | 0.00 | 61 | 1007.9 |
| 20260504210111 | 19 | 45 | 3.2 | 6.4 | 0.00 | 0.00 | 0.00 | 59 | 1008.0 |
| 20260504205601 | 20 | 45 | 3.2 | 6.4 | 0.00 | 0.00 | 0.00 | 58 | 1008.0 |
| 20260504205051 | 20 | 45 | 4.8 | 9.7 | 0.00 | 0.00 | 0.00 | 56 | 1008.1 |
| 20260504204540 | 20 | 45 | 3.2 | 11.3 | 0.00 | 0.00 | 0.00 | 55 | 1008.1 |
| 20260504204034 | 21 | 45 | 4.8 | 11.3 | 0.00 | 0.00 | 0.00 | 54 | 1008.2 |
| 20260504203522 | 21 | 45 | 6.4 | 12.9 | 0.00 | 0.00 | 0.00 | 53 | 1008.2 |
| 20260504203010 | 21 | 45 | 6.4 | 12.9 | 0.00 | 0.00 | 0.00 | 51 | 1008.3 |
| 20260504202459 | 22 | 45 | 6.4 | 12.9 | 0.00 | 0.00 | 0.00 | 48 | 1008.4 |
| 20260504201950 | 22 | 0 | 6.4 | 12.9 | 0.00 | 0.00 | 0.00 | 47 | 1008.6 |
| 20260504201439 | 22 | 23 | 6.4 | 14.5 | 0.00 | 0.00 | 0.00 | 47 | 1008.3 |
| 20260504200929 | 23 | 0 | 8.0 | 14.5 | 0.00 | 0.00 | 0.00 | 47 | 1008.3 |
| 20260504200419 | 23 | 23 | 6.4 | 12.9 | 0.00 | 0.00 | 0.00 | 45 | 1008.4 |
| 20260504195909 | 23 | 0 | 8.0 | 12.9 | 0.00 | 0.00 | 0.00 | 46 | 1008.5 |
| 20260504195359 | 23 | 23 | 6.4 | 12.9 | 0.00 | 0.00 | 0.00 | 45 | 1008.0 |
| 20260504194849 | 23 | 45 | 4.8 | 14.5 | 0.00 | 0.00 | 0.00 | 44 | 1008.4 |
| 20260504194338 | 23 | 23 | 6.4 | 14.5 | 0.00 | 0.00 | 0.00 | 45 | 1008.4 |
| 20260504193828 | 23 | 0 | 6.4 | 17.7 | 0.00 | 0.00 | 0.00 | 44 | 1008.3 |
| 20260504193319 | 23 | 0 | 9.7 | 17.7 | 0.00 | 0.00 | 0.00 | 44 | 1008.6 |
| 20260504192258 | 23 | 0 | 3.2 | 17.7 | 0.00 | 0.00 | 0.00 | 44 | 1008.9 |
| 20260504191747 | 23 | 0 | 6.4 | 14.5 | 0.00 | 0.00 | 0.00 | 44 | 1008.7 |
| 20260504191238 | 23 | 315 | 11.3 | 14.5 | 0.00 | 0.00 | 0.00 | 43 | 1008.7 |
| 20260504190727 | 24 | 338 | 9.7 | 17.7 | 0.00 | 0.00 | 0.00 | 42 | 1008.8 |
| 20260504190218 | 23 | 338 | 6.4 | 17.7 | 0.00 | 0.00 | 0.00 | 42 | 1008.7 |
| 20260504185707 | 24 | 0 | 8.0 | 17.7 | 0.00 | 0.00 | 0.00 | 43 | 1008.6 |
| 20260504185158 | 23 | 23 | 6.4 | 12.9 | 0.00 | 0.00 | 0.00 | 42 | 1008.5 |
| 20260504184646 | 23 | 23 | 6.4 | 25.7 | 0.00 | 0.00 | 0.00 | 42 | 1008.8 |
| 20260504184137 | 23 | 23 | 9.7 | 25.7 | 0.00 | 0.00 | 0.00 | 42 | 1008.6 |
| 20260504183627 | 23 | 315 | 12.9 | 17.7 | 0.00 | 0.00 | 0.00 | 40 | 1008.6 |
| 20260504183116 | 23 | 315 | 6.4 | 22.5 | 0.00 | 0.00 | 0.00 | 41 | 1008.4 |
| 20260504182606 | 23 | 338 | 8.0 | 22.5 | 0.00 | 0.00 | 0.00 | 41 | 1008.8 |
| 20260504182055 | 23 | 315 | 9.7 | 14.5 | 0.00 | 0.00 | 0.00 | 41 | 1008.9 |
| 20260504181547 | 23 | 315 | 9.7 | 17.7 | 0.00 | 0.00 | 0.00 | 41 | 1008.9 |
| 20260504181036 | 23 | 293 | 8.0 | 17.7 | 0.00 | 0.00 | 0.00 | 42 | 1008.8 |
| 20260504180526 | 23 | 0 | 3.2 | 17.7 | 0.00 | 0.00 | 0.00 | 42 | 1008.8 |
| 20260504180020 | 23 | 293 | 6.4 | 17.7 | 0.00 | 0.00 | 0.00 | 42 | 1009.0 |
| 20260504175505 | 23 | 338 | 6.4 | 17.7 | 0.00 | 0.00 | 0.00 | 43 | 1009.1 |
| 20260504174956 | 23 | 0 | 3.2 | 17.7 | 0.00 | 0.00 | 0.00 | 43 | 1009.1 |
| 20260504174446 | 22 | 315 | 9.7 | 20.9 | 0.00 | 0.00 | 0.00 | 43 | 1009.1 |
| 20260504173935 | 23 | 315 | 12.9 | 20.9 | 0.00 | 0.00 | 0.00 | 42 | 1009.2 |
| 20260504173428 | 22 | 338 | 6.4 | 17.7 | 0.00 | 0.00 | 0.00 | 43 | 1009.3 |
| 20260504172916 | 23 | 315 | 12.9 | 17.7 | 0.00 | 0.00 | 0.00 | 42 | 1009.5 |
| 20260504172405 | 23 | 315 | 8.0 | 17.7 | 0.00 | 0.00 | 0.00 | 42 | 1009.8 |
| 20260504171854 | 22 | 293 | 6.4 | 17.7 | 0.00 | 0.00 | 0.00 | 43 | 1010.0 |